User: anonymous   Login
Location: Podia
(1.5569°N, 32.3469°E)
Time: 03:11:26
(UTC+00:00)
Language:

SL-24 R/B - Orbit

View from above orbital plane
View from above orbital plane
View from above satellite
View from above satellite

Ground track
Ground track

The orbit data is extracted from the following two-line orbital elements,

1 31123U 07012G   20221.82610944 -.00000013 +00000-0 +94250-5 0  9991
2 31123 098.0116 243.9543 0313319 138.4106 032.3055 14.12605347686247
Epoch (UTC): 08 August 2020 19:49:35
Eccentricity: 0.0313319
inclination: 98.0116°
perigee height: 624 km
apogee height: 1077 km
right ascension of ascending node: 243.9543°
argument of perigee: 138.4106°
revolutions per day: 14.12605347
mean anomaly at epoch: 32.3055°
orbit number at epoch: 68624

The dashed part of the orbit path shows where the satellite is in the earth's shadow,  

DLR